| time (UTC) | temp F | wind direction | speed MPH | gust MPH | rain 1hr in | rain 24hr in | rain mn in | humidity % | barometer mb |
| 20260905220120 | 78 | 0 | 1.0 | 3.0 | 0.00 | 0.00 | 0.00 | 63 | 1012.2 |
| 20260905214606 | 79 | 214 | 0.0 | 2.0 | 0.00 | 0.00 | 0.00 | 64 | 1012.1 |
| 20260905213106 | 79 | 0 | 0.0 | 4.0 | 0.00 | 0.00 | 0.00 | 63 | 1011.9 |
| 20260905211605 | 80 | 117 | 0.0 | 5.0 | 0.00 | 0.00 | 0.00 | 63 | 1011.8 |
| 20260905210109 | 80 | 167 | 0.0 | 4.0 | 0.00 | 0.00 | 0.00 | 64 | 1012.0 |
| 20260905204607 | 80 | 164 | 1.0 | 6.0 | 0.00 | 0.00 | 0.00 | 65 | 1011.9 |
| 20260905203117 | 79 | 300 | 1.0 | 6.0 | 0.00 | 0.00 | 0.00 | 64 | 1012.0 |
| 20260905201604 | 79 | 202 | 2.0 | 8.0 | 0.00 | 0.00 | 0.00 | 66 | 1012.2 |
| 20260905200108 | 79 | 101 | 0.0 | 4.0 | 0.00 | 0.00 | 0.00 | 68 | 1012.1 |
| 20260905194617 | 79 | 163 | 0.0 | 4.0 | 0.00 | 0.00 | 0.00 | 68 | 1012.1 |
| 20260905193104 | 79 | 184 | 1.0 | 5.0 | 0.00 | 0.00 | 0.00 | 69 | 1012.4 |
| 20260905191611 | 79 | 101 | 1.0 | 6.0 | 0.00 | 0.00 | 0.00 | 70 | 1012.5 |
| 20260905190104 | 78 | 126 | 0.0 | 4.0 | 0.00 | 0.00 | 0.00 | 70 | 1012.5 |
| 20260905184616 | 78 | 255 | 1.0 | 4.0 | 0.00 | 0.00 | 0.00 | 74 | 1012.6 |
| 20260905183108 | 76 | 171 | 1.0 | 5.0 | 0.00 | 0.00 | 0.00 | 77 | 1012.7 |
| 20260905181607 | 76 | 160 | 0.0 | 2.0 | 0.00 | 0.00 | 0.00 | 78 | 1012.9 |
| 20260905180105 | 76 | 159 | 1.0 | 4.0 | 0.00 | 0.00 | 0.00 | 78 | 1013.0 |
| 20260905174606 | 76 | 214 | 0.0 | 4.0 | 0.00 | 0.00 | 0.00 | 78 | 1013.0 |
| 20260905173104 | 75 | 178 | 1.0 | 4.0 | 0.00 | 0.00 | 0.00 | 80 | 1013.2 |
| 20260905171636 | 74 | 236 | 1.0 | 4.0 | 0.00 | 0.00 | 0.00 | 80 | 1013.3 |
| 20260905170107 | 74 | 162 | 1.0 | 2.0 | 0.00 | 0.00 | 0.00 | 80 | 1013.4 |
| 20260905164606 | 74 | 0 | 0.0 | 2.0 | 0.00 | 0.00 | 0.00 | 80 | 1013.4 |
| 20260905163105 | 74 | 0 | 0.0 | 1.0 | 0.00 | 0.00 | 0.00 | 81 | 1013.8 |
| 20260905161604 | 73 | 92 | 0.0 | 2.0 | 0.00 | 0.00 | 0.00 | 79 | 1013.9 |
| 20260905160110 | 73 | 88 | 0.0 | 2.0 | 0.00 | 0.00 | 0.00 | 82 | 1013.9 |
| 20260905154646 | 72 | 207 | 0.0 | 3.0 | 0.00 | 0.11 | 0.00 | 84 | 1013.8 |
| 20260905153106 | 72 | 0 | 0.0 | 3.0 | 0.00 | 0.11 | 0.00 | 84 | 1013.8 |
| 20260905151604 | 71 | 209 | 0.0 | 3.0 | 0.00 | 0.11 | 0.00 | 85 | 1013.8 |
| 20260905150109 | 71 | 188 | 0.0 | 3.0 | 0.00 | 0.11 | 0.00 | 87 | 1013.6 |
| 20260905144610 | 70 | 194 | 1.0 | 3.0 | 0.00 | 0.11 | 0.00 | 88 | 1013.1 |
| 20260905143107 | 70 | 143 | 1.0 | 3.0 | 0.00 | 0.11 | 0.00 | 91 | 1013.1 |
| 20260905141604 | 69 | 200 | 1.0 | 3.0 | 0.00 | 0.11 | 0.00 | 92 | 1013.0 |
| 20260905140103 | 69 | 165 | 0.0 | 4.0 | 0.00 | 0.11 | 0.00 | 94 | 1013.0 |
| 20260905134608 | 68 | 228 | 1.0 | 3.0 | 0.00 | 0.11 | 0.00 | 93 | 1013.1 |
| 20260905133102 | 68 | 0 | 0.0 | 3.0 | 0.00 | 0.11 | 0.00 | 93 | 1013.2 |
| 20260905131602 | 68 | 0 | 0.0 | 2.0 | 0.00 | 0.11 | 0.00 | 94 | 1013.2 |
| 20260905124607 | 67 | 0 | 0.0 | 1.0 | 0.00 | 0.11 | 0.00 | 94 | 1013.1 |
| 20260905123105 | 66 | 0 | 0.0 | 1.0 | 0.00 | 0.11 | 0.00 | 94 | 1013.4 |
| 20260905121607 | 66 | 0 | 0.0 | 1.0 | 0.00 | 0.11 | 0.00 | 94 | 1013.2 |
| 20260905120106 | 65 | 0 | 0.0 | 0.0 | 0.00 | 0.11 | 0.00 | 94 | 1013.1 |
| 20260905114610 | 65 | 0 | 0.0 | 2.0 | 0.00 | 0.11 | 0.00 | 94 | 1013.0 |
| 20260905113101 | 65 | 0 | 0.0 | 1.0 | 0.00 | 0.11 | 0.00 | 93 | 1012.9 |
| 20260905111628 | 65 | 0 | 0.0 | 0.0 | 0.00 | 0.11 | 0.00 | 93 | 1012.9 |
| 20260905110113 | 65 | 0 | 0.0 | 1.0 | 0.00 | 0.11 | 0.00 | 93 | 1013.0 |
| 20260905104619 | 65 | 0 | 0.0 | 3.0 | 0.00 | 0.11 | 0.00 | 93 | 1013.1 |
| 20260905103102 | 65 | 0 | 0.0 | 0.0 | 0.00 | 0.11 | 0.00 | 93 | 1013.0 |
| 20260905101602 | 65 | 121 | 0.0 | 1.0 | 0.00 | 0.11 | 0.00 | 93 | 1012.7 |
| 20260905100105 | 65 | 0 | 0.0 | 1.0 | 0.00 | 0.11 | 0.00 | 93 | 1012.5 |
| 20260905094717 | 65 | 0 | 0.0 | 0.0 | 0.00 | 0.11 | 0.00 | 93 | 1012.6 |
| 20260905093128 | 65 | 0 | 0.0 | 1.0 | 0.00 | 0.11 | 0.00 | 93 | 1012.7 |
| 20260905091605 | 65 | 0 | 0.0 | 1.0 | 0.00 | 0.11 | 0.00 | 93 | 1012.7 |
| 20260905090103 | 65 | 0 | 0.0 | 1.0 | 0.00 | 0.11 | 0.00 | 93 | 1012.1 |
| 20260905084610 | 64 | 0 | 0.0 | 1.0 | 0.00 | 0.12 | 0.00 | 93 | 1012.1 |
| 20260905083103 | 64 | 0 | 0.0 | 1.0 | 0.00 | 0.12 | 0.00 | 93 | 1012.5 |
| 20260905081605 | 64 | 0 | 0.0 | 1.0 | 0.00 | 0.12 | 0.00 | 92 | 1012.6 |
| 20260905080121 | 64 | 0 | 0.0 | 0.0 | 0.00 | 0.12 | 0.00 | 91 | 1012.5 |
| 20260905074606 | 65 | 0 | 0.0 | 1.0 | 0.00 | 0.12 | 0.00 | 92 | 1012.5 |
| 20260905073111 | 65 | 0 | 0.0 | 0.0 | 0.00 | 0.12 | 0.00 | 91 | 1012.7 |
| 20260905071603 | 65 | 0 | 0.0 | 0.0 | 0.00 | 0.12 | 0.00 | 91 | 1012.8 |
| 20260905070101 | 65 | 0 | 0.0 | 0.0 | 0.00 | 0.12 | 0.00 | 91 | 1013.1 |
| 20260905064559 | 66 | 0 | 0.0 | 0.0 | 0.00 | 0.12 | 0.00 | 92 | 1013.3 |
| 20260905063103 | 66 | 0 | 0.0 | 0.0 | 0.00 | 0.12 | 0.00 | 92 | 1013.7 |
| 20260905061607 | 65 | 0 | 0.0 | 0.0 | 0.00 | 0.12 | 0.00 | 92 | 1013.7 |
| 20260905060109 | 65 | 0 | 0.0 | 0.0 | 0.00 | 0.12 | 0.00 | 92 | 1013.7 |
| 20260905054608 | 65 | 0 | 0.0 | 0.0 | 0.00 | 0.12 | 0.00 | 92 | 1013.8 |
| 20260905053058 | 65 | 0 | 0.0 | 1.0 | 0.00 | 0.12 | 0.00 | 92 | 1013.8 |
| 20260905051611 | 64 | 0 | 0.0 | 1.0 | 0.00 | 0.12 | 0.00 | 91 | 1013.9 |
| 20260905050106 | 64 | 0 | 0.0 | 1.0 | 0.00 | 0.12 | 0.00 | 91 | 1013.8 |
| 20260905044605 | 65 | 0 | 0.0 | 0.0 | 0.00 | 0.12 | 0.00 | 90 | 1013.8 |
| 20260905043100 | 65 | 0 | 0.0 | 1.0 | 0.00 | 0.12 | 0.00 | 90 | 1013.8 |
| 20260905041611 | 65 | 0 | 0.0 | 1.0 | 0.00 | 0.12 | 0.00 | 90 | 1013.6 |
| 20260905040112 | 65 | 0 | 0.0 | 0.0 | 0.00 | 0.12 | 0.00 | 89 | 1013.6 |
| 20260905034607 | 66 | 0 | 0.0 | 0.0 | 0.00 | 0.12 | 0.12 | 89 | 1013.6 |
| 20260905033109 | 66 | 0 | 0.0 | 0.0 | 0.00 | 0.12 | 0.12 | 89 | 1013.7 |
| 20260905031616 | 66 | 0 | 0.0 | 0.0 | 0.00 | 0.12 | 0.12 | 89 | 1013.8 |
| 20260905030111 | 66 | 0 | 0.0 | 0.0 | 0.00 | 0.12 | 0.12 | 89 | 1013.6 |
| 20260905024613 | 67 | 0 | 0.0 | 0.0 | 0.00 | 0.12 | 0.12 | 88 | 1013.7 |
| 20260905023107 | 67 | 0 | 0.0 | 0.0 | 0.00 | 0.12 | 0.12 | 88 | 1013.6 |
| 20260905021615 | 68 | 0 | 0.0 | 0.0 | 0.00 | 0.12 | 0.12 | 89 | 1013.7 |
| 20260905020113 | 68 | 0 | 0.0 | 1.0 | 0.00 | 0.12 | 0.12 | 88 | 1013.9 |
| 20260905014605 | 68 | 0 | 0.0 | 0.0 | 0.00 | 0.17 | 0.12 | 88 | 1013.8 |
| 20260905013120 | 69 | 0 | 0.0 | 0.0 | 0.00 | 0.17 | 0.12 | 89 | 1013.8 |
| 20260905011614 | 69 | 0 | 0.0 | 0.0 | 0.00 | 0.17 | 0.12 | 87 | 1013.8 |
| 20260905010111 | 69 | 0 | 0.0 | 0.0 | 0.00 | 0.17 | 0.12 | 87 | 1013.7 |
| 20260905004607 | 70 | 0 | 0.0 | 1.0 | 0.00 | 0.45 | 0.12 | 87 | 1013.6 |
| 20260905003102 | 70 | 0 | 0.0 | 1.0 | 0.00 | 0.45 | 0.12 | 87 | 1013.6 |
| 20260905001604 | 71 | 0 | 0.0 | 0.0 | 0.00 | 0.45 | 0.12 | 86 | 1013.7 |
| 20260905000109 | 72 | 0 | 0.0 | 0.0 | 0.00 | 0.45 | 0.12 | 85 | 1013.7 |
| 20260904234608 | 73 | 0 | 0.0 | 2.0 | 0.00 | 0.73 | 0.12 | 85 | 1013.8 |
| 20260904233100 | 74 | 0 | 0.0 | 2.0 | 0.00 | 0.73 | 0.12 | 84 | 1013.8 |
| 20260904231602 | 75 | 0 | 0.0 | 1.0 | 0.00 | 0.73 | 0.12 | 83 | 1013.7 |
| 20260904230113 | 76 | 0 | 0.0 | 1.0 | 0.00 | 0.73 | 0.12 | 83 | 1013.7 |
| 20260904224622 | 77 | 0 | 0.0 | 1.0 | 0.00 | 0.73 | 0.12 | 82 | 1013.4 |
| 20260904223111 | 77 | 0 | 0.0 | 1.0 | 0.00 | 0.73 | 0.12 | 81 | 1013.3 |
| 20260904221629 | 78 | 0 | 0.0 | 1.0 | 0.00 | 0.73 | 0.12 | 80 | 1013.2 |